Regional Weather Roundup
Issued by NWS

Home | Current Version | Previous Version | Graphics & Text | Print | Product List | Glossary Off
Versions: 1 2 3 4 5 6 7 8 9 10 11 12 13 14 15 16 17 18 19 20 21 22 23 24 25 26 27 28 29 30 31 32 33 34 35 36 37 38 39 40 41 42 43 44 45 46 47 48 49 50

000
ASUS43 KTOP 281508
RWRKS

WEATHER ROUNDUP FOR KANSAS
NATIONAL WEATHER SERVICE GOODLAND KS
900 AM CST SUN DEC 28 2014

NOTE:  "FAIR" INDICATES FEW OR NO CLOUDS BELOW 12,000 FEET WITH NO
SIGNIFICANT WEATHER AND/OR OBSTRUCTIONS TO VISIBILITY.

KSZ001>006-013>018-027>032-041>047-281600-
NORTHWEST KANSAS

CITY           SKY/WX    TMP DP  RH WIND       PRES   REMARKS
GOODLAND       MOCLDY    13   8  81 W3        30.01R
HAYS           CLEAR     16   5  62 CALM      30.13S
HILL CITY      PTCLDY    10   5  80 W3        30.13R
RUSSELL        CLEAR     16  14  92 SW6       30.13F
$$

KSZ061>065-074>080-084>089-281600-
SOUTHWEST KANSAS

CITY           SKY/WX    TMP DP  RH WIND       PRES   REMARKS
DODGE CITY     CLEAR     21  17  84 S5        30.10F
ELKHART          N/A     20  11  68 NW3         N/A
GARDEN CITY    PTCLDY    17  15  92 S7        30.07S
GREAT BEND     SUNNY     18  12  79 S3        30.16S
LIBERAL        PTCLDY    18  12  79 S6        30.08F
PRATT          SUNNY     23  21  93 SW5       30.16F
$$

KSZ066>073-081>083-090>101-281600-
SOUTHEAST KANSAS

CITY           SKY/WX    TMP DP  RH WIND       PRES   REMARKS
CHANUTE        SUNNY     23  20  88 SE3       30.27R
COFFEYVILLE    SUNNY     21  19  92 CALM      30.29R
HUTCHINSON     SUNNY     21  16  81 CALM      30.20F
MEDICINE LODGE   N/A     21  17  84 CALM      30.20S
NEWTON         SUNNY     21  16  79 SW8       30.21S
PARSONS        SUNNY     20  18  92 CALM      30.29R
WICHITA INTL   MOSUNNY   22  18  85 CALM      30.22R
WICHITA JABRA  SUNNY     26  20  77 SW6       30.22R
WICHITA MCCONL SUNNY     26  20  79 CALM      30.22S
WINFIELD       SUNNY     23  20  88 SE5       30.26R
$$

KSZ007>012-019>026-033>040-048>060-102>105-281600-
NORTHEAST KANSAS

CITY           SKY/WX    TMP DP  RH WIND       PRES   REMARKS
CONCORDIA      SUNNY     21  16  81 SW6       30.17R
EMPORIA        SUNNY     22  18  85 SW3       30.22S
LAWRENCE       SUNNY     20  18  92 CALM      30.25R
MANHATTAN      SUNNY     19  16  88 SW3       30.22R
MARYSVILLE     SUNNY     21  18  86 SW8       30.19R
OLATHE IND     SUNNY     21  18  88 S6        30.25R
OLATHE EXE     SUNNY     21  20  96 S7        30.24R
SALINA         SUNNY     22  17  81 CALM      30.20S
TOPEKA BILLARD SUNNY     22  17  81 S3        30.24S
TOPEKA FORBES  SUNNY     22  17  81 S5        30.22S
$$


USA.gov is the U.S. government's official web portal to all federal, state and local government web resources and services.